Other Surface Observations
Issued by NWS

Home | Current Version | Previous Version | Text Only | Print | Product List | Glossary On
Versions: 1 2 3 4 5 6 7 8 9 10 11 12 13 14 15 16 17 18 19 20 21 22 23 24 25 26 27 28 29 30 31 32 33 34 35 36 37 38 39 40 41 42 43 44 45 46 47 48 49 50
000
SXUS52 KTAE 231418
OSOTAE
OSOTAE
North Florida/South Alabama/Southwest Georgia Weather Roundup
National Weather Service Tallahassee Florida
1000 AM EDT SAT AUG 23 2014

Note: "fair" indicates few or no clouds below 12,000 feet with no
significant weather and/or obstructions to visibility.

!FLZ017-115-028-034-025-231500
...North Florida...

CITY           SKY/WX    TMP DP  RH WIND       PRES   REMARKS
TALLAHASSEE    SUNNY     89  75  63 N3        30.00S HX  99
APALACHICOLA   SUNNY     88  78  72 NW9       29.99F HX 101
PERRY          SUNNY     86  75  70 N6        30.00S HX  95
CROSS CITY       N/A     88  76  67 NW8       29.99S HX  99
HOMERVILLE     FAIR      90  77  66 NW3       29.99S HX 102
JACKSONVILLE   PTSUNNY   87  76  69 NW6       29.97R HX  97
$$

!FLZ112-006-005-002-011-231500
...Florida Panhandle...

CITY           SKY/WX    TMP DP  RH WIND       PRES   REMARKS
MARIANNA       SUNNY     87  77  72 NW7       30.00S HX  99
BONIFAY        HVY RAIN  87  76  69 VRB5      30.02S HX  97
PANAMA CITY NW FAIR      87  77  72 NW5       30.00S HX  99
TYNDALL AFB    SUNNY     86  79  78 N7        30.01S HX 100
TYND DRONE APT NOT AVBL
DE FUNIAK SPR  FAIR      86  75  69 N8        30.03S HX  95
EGLIN AFB      MOSUNNY   88  75  65 N7        30.01S HX  97
DESTIN         SUNNY     89  76  65 N8        30.01S HX 100
HURLBURT       SUNNY     87  72  59 N10       30.00S HX  94
CRESTVIEW      SUNNY     88  74  63 N7        30.04S HX  96
PENSACOLA      SUNNY     86  73  65 N8        30.01F HX  93
$$

!ALZ063-066-231500
...South Alabama...

CITY           SKY/WX    TMP DP  RH WIND       PRES   REMARKS
DOTHAN         SUNNY     87  73  62 NW8       30.05S HX  94
OZARK CAIRNS   SUNNY     86  74  66 NW3       30.02S HX  94
FT RUCKER HELI SUNNY     87  73  62 N6        30.01S HX  94
RUCKER HELI 3  FAIR      86  73  64 NW6       30.04F HX  93
RUCKER HELI 2  FAIR      88  73  61 NW6       30.01F HX  95
FLORALA APT    SUNNY     88  75  65 VRB3      30.04F HX  97
ANDALUSIA      SUNNY     90  75  61 N5        30.02F HX 100
TROY           MOSUNNY   86  73  65 W5        30.03S HX  93
EUFALA         FAIR      87  74  64 NW3       30.00F HX  95
MOBILE         MOSUNNY   86  75  69 N8        30.04S HX  95
$$

!GAZ120>161-231500
...Southwest and South Central Georgia...

CITY           SKY/WX    TMP DP  RH WIND       PRES   REMARKS
THOMASVILLE    FAIR      86  75  70 NW8       30.01S HX  95
BAINBRIDGE     SUNNY     90  77  66 NW7       30.01S HX 102
MOODY AFB      SUNNY     87  75  67 NW6       29.99S HX  96
VALDOSTA       SUNNY     89  73  59 VRB3      29.99S HX  97
MOULTRIE       SUNNY     86  77  74 NW5       30.01S HX  97
BLAKELY        SUNNY     90  73  58 NW5         N/A  HX  98
ALBANY         SUNNY     85  75  72 NW3       30.02S HX  93
TIFTON         FAIR      87  71  60 N6        30.00S HX  92
FITZGERALD     FAIR      91  69  47 NW8       30.02S HX  96
CORDELE        FAIR      88  74  63 CALM      30.01S HX  96
AMERICUS       FAIR      88  72  58 N5        30.03S HX  94
$$

!GMZ750-755-770-775-231500
...Coastal and Buoy Obs...

STATION/POSITION TIME  TEMP    WIND        PRES    VSBY  WAVE
                       AIR SEA DIR/SP/G                  HT/PER
                 (UTC) (F)     (DEG/KT/KT) (MB)    (MI)  (FT/S)
KEATON BEACH     1400   85     300/  5/  7 1015.9R
CEDAR KEY        1400   87     350/  2/  3 1016.0R
C TOWER          1400   84     310/  9/  9 1015.7R
APALACHICOLA BUO 1400   85 87  340/  6/  8 1015.8S         1/ 3
PANAMA CITY BUOY 1320   86 88  330/ 10/ 12 1016.3R         1/ 6
MOBILE BUOY      1310   86 88  330/ 10/ 12 1016.9R
ORANGE BCH AL BU 1400   85 86  330/ 10/ 12 1016.3R         1/ 9
$$



USA.gov is the U.S. government's official web portal to all federal, state and local government web resources and services.